TAM505 SBGR-SBRJ

Flight info

Callsign TAM505
Flight time 0h 37m
Altitude 23000
Route NIBRU UZ171 KEVUN
Aircraft B77W/H-SDE1E2E3FGHIJ2J3J4J5M1RWXY/LB1D1

Departure

Time 2026-05-04 14:46
Airport São Paulo/Guarulhos–Governor André Franco Montoro International Airport (SBGR)

Arrival

Time 2026-05-04 15:24
Airport Santos Dumont Airport (SBRJ)
Time Latitude Longitude Altitude Speed Heading
2026-05-04 14:05 -23.42885 -46.47921 2473 ft 0 kts 283°
2026-05-04 14:34 -23.42887 -46.47908 2473 ft 3 kts 278°
2026-05-04 14:35 -23.42889 -46.47884 2473 ft 3 kts 264°
2026-05-04 14:35 -23.42884 -46.47861 2473 ft 3 kts 239°
2026-05-04 14:35 -23.42870 -46.47845 2474 ft 3 kts 196°
2026-05-04 14:35 -23.42856 -46.47843 2473 ft 1 kts 169°
2026-05-04 14:36 -23.42853 -46.47844 2473 ft 0 kts 169°
2026-05-04 14:39 -23.42856 -46.47843 2473 ft 2 kts 169°
2026-05-04 14:39 -23.42885 -46.47837 2473 ft 7 kts 169°
2026-05-04 14:40 -23.42977 -46.47817 2474 ft 12 kts 166°
2026-05-04 14:40 -23.43015 -46.47816 2476 ft 11 kts 199°
2026-05-04 14:40 -23.43058 -46.47912 2475 ft 15 kts 252°
2026-05-04 14:40 -23.43088 -46.48022 2474 ft 15 kts 253°
2026-05-04 14:41 -23.43117 -46.48132 2476 ft 15 kts 253°
2026-05-04 14:41 -23.43146 -46.48242 2475 ft 15 kts 254°
2026-05-04 14:41 -23.43227 -46.48381 2477 ft 10 kts 176°
2026-05-04 14:42 -23.43282 -46.48368 2478 ft 0 kts 166°
2026-05-04 14:43 -23.43300 -46.48363 2479 ft 8 kts 166°
2026-05-04 14:43 -23.43370 -46.48337 2478 ft 6 kts 150°
2026-05-04 14:43 -23.43404 -46.48293 2476 ft 13 kts 114°
2026-05-04 14:44 -23.43397 -46.48221 2477 ft 0 kts 74°
2026-05-04 14:45 -23.43391 -46.48200 2478 ft 13 kts 73°
2026-05-04 14:46 -23.43306 -46.47890 2476 ft 79 kts 73°
2026-05-04 14:46 -23.43088 -46.47085 2475 ft 143 kts 73°
2026-05-04 14:46 -23.42752 -46.45864 2519 ft 187 kts 73°
2026-05-04 14:46 -23.42447 -46.44483 3074 ft 193 kts 77°
2026-05-04 14:47 -23.42176 -46.43049 3733 ft 194 kts 76°
2026-05-04 14:47 -23.41799 -46.41616 4261 ft 200 kts 66°
2026-05-04 14:47 -23.41219 -46.40223 4701 ft 208 kts 63°
2026-05-04 14:47 -23.40604 -46.38747 5167 ft 220 kts 63°
2026-05-04 14:48 -23.40004 -46.37191 5719 ft 228 kts 65°
2026-05-04 14:48 -23.39512 -46.35459 5953 ft 251 kts 82°
2026-05-04 14:48 -23.39780 -46.33568 6596 ft 260 kts 115°
2026-05-04 14:48 -23.40763 -46.31892 7002 ft 273 kts 125°
2026-05-04 14:49 -23.41829 -46.30156 7621 ft 277 kts 122°
2026-05-04 14:49 -23.42892 -46.28394 8305 ft 282 kts 124°
2026-05-04 14:49 -23.43845 -46.26508 8921 ft 286 kts 110°
2026-05-04 14:49 -23.44421 -46.24403 9466 ft 299 kts 104°
2026-05-04 14:50 -23.44789 -46.22135 10012 ft 307 kts 97°
2026-05-04 14:50 -23.45014 -46.19793 10633 ft 316 kts 96°
2026-05-04 14:50 -23.45267 -46.17332 10877 ft 340 kts 98°
2026-05-04 14:50 -23.45605 -46.14721 11075 ft 365 kts 99°
2026-05-04 14:51 -23.46031 -46.11905 11376 ft 386 kts 101°
2026-05-04 14:51 -23.46508 -46.08989 12030 ft 396 kts 101°
2026-05-04 14:51 -23.47011 -46.06019 12846 ft 400 kts 102°
2026-05-04 14:51 -23.47526 -46.03035 13584 ft 405 kts 102°
2026-05-04 14:52 -23.48054 -45.99992 14347 ft 413 kts 102°
2026-05-04 14:52 -23.48589 -45.96900 15094 ft 419 kts 102°
2026-05-04 14:52 -23.49134 -45.93750 15849 ft 426 kts 102°
2026-05-04 14:52 -23.49688 -45.90559 16575 ft 433 kts 102°
2026-05-04 14:53 -23.50257 -45.87317 17335 ft 438 kts 102°
2026-05-04 14:53 -23.50828 -45.84075 18058 ft 444 kts 102°
2026-05-04 14:53 -23.51412 -45.80749 18725 ft 450 kts 102°
2026-05-04 14:53 -23.52001 -45.77376 19353 ft 455 kts 102°
2026-05-04 14:54 -23.52599 -45.73972 19964 ft 461 kts 103°
2026-05-04 14:54 -23.53202 -45.70527 20643 ft 464 kts 103°
2026-05-04 14:54 -23.53806 -45.67063 21422 ft 465 kts 103°
2026-05-04 14:54 -23.54407 -45.63602 22329 ft 463 kts 103°
2026-05-04 14:55 -23.55001 -45.60166 23103 ft 462 kts 103°
2026-05-04 14:55 -23.55590 -45.56774 23207 ft 463 kts 103°
2026-05-04 14:55 -23.56189 -45.53332 23211 ft 462 kts 103°
2026-05-04 14:55 -23.56784 -45.49892 23200 ft 462 kts 103°
2026-05-04 14:56 -23.57203 -45.46452 23193 ft 460 kts 92°
2026-05-04 14:56 -23.56766 -45.42983 23212 ft 464 kts 76°
2026-05-04 14:56 -23.55885 -45.39578 23218 ft 471 kts 75°
2026-05-04 14:56 -23.55044 -45.36111 23215 ft 473 kts 77°
2026-05-04 14:57 -23.54267 -45.32641 23201 ft 469 kts 77°
2026-05-04 14:57 -23.53537 -45.29232 23209 ft 465 kts 78°
2026-05-04 14:57 -23.52815 -45.25807 23199 ft 464 kts 78°
2026-05-04 14:57 -23.52096 -45.22389 23213 ft 463 kts 78°
2026-05-04 14:58 -23.51375 -45.18971 23200 ft 462 kts 77°
2026-05-04 14:58 -23.50651 -45.15558 23211 ft 462 kts 78°
2026-05-04 14:58 -23.49926 -45.12151 23207 ft 462 kts 78°
2026-05-04 14:58 -23.49197 -45.08741 23203 ft 462 kts 77°
2026-05-04 14:59 -23.48468 -45.05326 23204 ft 462 kts 77°
2026-05-04 14:59 -23.47749 -45.01962 23197 ft 463 kts 77°
2026-05-04 14:59 -23.46285 -44.95134 23187 ft 463 kts 77°
2026-05-04 15:00 -23.45544 -44.91734 23179 ft 457 kts 77°
2026-05-04 15:00 -23.44807 -44.88418 23187 ft 445 kts 77°
2026-05-04 15:00 -23.44080 -44.85162 22832 ft 443 kts 77°
2026-05-04 15:01 -23.42634 -44.78680 21935 ft 438 kts 76°
2026-05-04 15:01 -23.41924 -44.75496 21502 ft 439 kts 76°
2026-05-04 15:01 -23.41203 -44.72258 21067 ft 441 kts 76°
2026-05-04 15:01 -23.40478 -44.69007 20593 ft 443 kts 76°
2026-05-04 15:02 -23.39747 -44.65734 20151 ft 445 kts 76°
2026-05-04 15:02 -23.39016 -44.62461 19700 ft 447 kts 76°
2026-05-04 15:02 -23.38280 -44.59169 19227 ft 449 kts 76°
2026-05-04 15:02 -23.37539 -44.55860 18749 ft 451 kts 76°
2026-05-04 15:03 -23.36795 -44.52541 18240 ft 452 kts 76°
2026-05-04 15:03 -23.36049 -44.49216 17730 ft 452 kts 76°
2026-05-04 15:03 -23.35304 -44.45898 17226 ft 452 kts 76°
2026-05-04 15:03 -23.34563 -44.42622 16790 ft 450 kts 75°
2026-05-04 15:04 -23.33602 -44.39430 16309 ft 444 kts 66°
2026-05-04 15:04 -23.32315 -44.36395 15931 ft 440 kts 63°
2026-05-04 15:04 -23.30944 -44.33468 15298 ft 426 kts 62°
2026-05-04 15:04 -23.29630 -44.30666 14833 ft 406 kts 62°
2026-05-04 15:05 -23.28409 -44.27985 14416 ft 386 kts 63°
2026-05-04 15:05 -23.27269 -44.25412 14027 ft 369 kts 64°
2026-05-04 15:05 -23.26195 -44.22946 13575 ft 354 kts 64°
2026-05-04 15:05 -23.25167 -44.20566 13162 ft 340 kts 64°
2026-05-04 15:06 -23.24166 -44.18244 12807 ft 339 kts 64°
2026-05-04 15:06 -23.23175 -44.15945 12449 ft 342 kts 64°
2026-05-04 15:06 -23.22157 -44.13583 12091 ft 349 kts 64°
2026-05-04 15:07 -23.20070 -44.08748 11296 ft 354 kts 64°
2026-05-04 15:07 -23.19008 -44.06356 11063 ft 347 kts 62°
2026-05-04 15:07 -23.17934 -44.04035 10869 ft 340 kts 62°
2026-05-04 15:07 -23.16883 -44.01767 10679 ft 330 kts 62°
2026-05-04 15:08 -23.15881 -43.99595 10472 ft 312 kts 62°
2026-05-04 15:08 -23.14970 -43.97528 10323 ft 297 kts 64°
2026-05-04 15:08 -23.14117 -43.95527 10187 ft 296 kts 64°
2026-05-04 15:08 -23.13253 -43.93492 10044 ft 300 kts 63°
2026-05-04 15:09 -23.12373 -43.91422 9885 ft 302 kts 64°
2026-05-04 15:09 -23.11495 -43.89363 9694 ft 298 kts 63°
2026-05-04 15:09 -23.10630 -43.87336 9543 ft 293 kts 63°
2026-05-04 15:10 -23.08937 -43.83374 9237 ft 286 kts 63°
2026-05-04 15:10 -23.08103 -43.81426 9117 ft 282 kts 63°
2026-05-04 15:10 -23.06504 -43.77694 8856 ft 264 kts 63°
2026-05-04 15:11 -23.05748 -43.75928 8700 ft 252 kts 63°
2026-05-04 15:11 -23.05023 -43.74240 8536 ft 243 kts 63°
2026-05-04 15:11 -23.04304 -43.72568 8404 ft 246 kts 63°
2026-05-04 15:11 -23.03583 -43.70890 8282 ft 244 kts 63°
2026-05-04 15:12 -23.02865 -43.69227 8090 ft 244 kts 63°
2026-05-04 15:12 -23.02137 -43.67562 7878 ft 244 kts 63°
2026-05-04 15:12 -23.01409 -43.65899 7650 ft 245 kts 62°
2026-05-04 15:12 -23.00675 -43.64222 7295 ft 245 kts 62°
2026-05-04 15:13 -22.99962 -43.62592 7044 ft 238 kts 62°
2026-05-04 15:13 -22.99266 -43.61004 6881 ft 227 kts 62°
2026-05-04 15:13 -22.98607 -43.59504 6732 ft 214 kts 62°
2026-05-04 15:13 -22.97986 -43.58091 6605 ft 203 kts 61°
2026-05-04 15:14 -22.97379 -43.56713 6494 ft 202 kts 61°
2026-05-04 15:14 -22.96775 -43.55340 6385 ft 204 kts 61°
2026-05-04 15:14 -22.96162 -43.53950 6277 ft 205 kts 60°
2026-05-04 15:14 -22.95547 -43.52555 6176 ft 205 kts 61°
2026-05-04 15:15 -22.94934 -43.51162 6009 ft 205 kts 61°
2026-05-04 15:15 -22.94349 -43.49794 5835 ft 200 kts 63°
2026-05-04 15:15 -22.93780 -43.48444 5605 ft 193 kts 62°
2026-05-04 15:16 -22.92701 -43.45884 5217 ft 184 kts 61°
2026-05-04 15:16 -22.92158 -43.44600 5030 ft 189 kts 62°
2026-05-04 15:16 -22.91070 -43.42051 4619 ft 182 kts 63°
2026-05-04 15:17 -22.90549 -43.40819 4468 ft 177 kts 62°
2026-05-04 15:17 -22.89504 -43.38359 4135 ft 181 kts 64°
2026-05-04 15:17 -22.88989 -43.37127 3996 ft 184 kts 65°
2026-05-04 15:18 -22.88468 -43.35886 3845 ft 178 kts 63°
2026-05-04 15:18 -22.88181 -43.34611 3655 ft 172 kts 90°
2026-05-04 15:18 -22.88319 -43.33383 3511 ft 157 kts 92°
2026-05-04 15:19 -22.88407 -43.31133 3239 ft 146 kts 89°
2026-05-04 15:19 -22.88446 -43.30036 3134 ft 145 kts 89°
2026-05-04 15:19 -22.88518 -43.27803 2839 ft 145 kts 91°
2026-05-04 15:20 -22.88558 -43.26696 2798 ft 148 kts 92°
2026-05-04 15:20 -22.88804 -43.25634 2703 ft 149 kts 113°
2026-05-04 15:20 -22.89250 -43.24596 2441 ft 156 kts 112°
2026-05-04 15:20 -22.89687 -43.23539 2080 ft 150 kts 112°
2026-05-04 15:21 -22.90093 -43.22552 1820 ft 143 kts 111°
2026-05-04 15:21 -22.90487 -43.21563 1653 ft 141 kts 110°
2026-05-04 15:21 -22.91630 -43.19769 1375 ft 152 kts 149°
2026-05-04 15:22 -22.92660 -43.19380 1080 ft 159 kts 158°
2026-05-04 15:22 -22.93667 -43.18985 1008 ft 151 kts 152°
2026-05-04 15:22 -22.94769 -43.17426 556 ft 140 kts 70°
2026-05-04 15:23 -22.94267 -43.16551 611 ft 142 kts 38°
2026-05-04 15:23 -22.93289 -43.16262 317 ft 148 kts
2026-05-04 15:23 -22.92258 -43.16223 160 ft 149 kts
2026-05-04 15:23 -22.91232 -43.16271 30 ft 130 kts 356°
2026-05-04 15:24 -22.90810 -43.16361 30 ft 10 kts 271°
2026-05-04 15:24 -22.90814 -43.16507 27 ft 9 kts 266°
2026-05-04 15:25 -22.90854 -43.16548 27 ft 8 kts 195°
2026-05-04 15:25 -22.90911 -43.16547 27 ft 8 kts 175°
2026-05-04 15:25 -22.90970 -43.16541 27 ft 9 kts 175°
2026-05-04 15:26 -22.91018 -43.16537 27 ft 0 kts 175°
2026-05-04 15:26 -22.91028 -43.16543 27 ft 4 kts 218°
2026-05-04 15:27 -22.91045 -43.16575 27 ft 5 kts 254°
2026-05-04 15:27 -22.91047 -43.16590 27 ft 0 kts 265°